Ord, NE

9:31 AM CDT on April 23, 2017 (GMT -0500)
Sharp

Weather History for KODX - August, 2012

Change the Weather History Date:

Wednesday, August 22, 2012

  Actual Average Record
Temperature  
Mean Temperature 77 °F 72 °F  
Max Temperature 91 °F 85 °F 93 °F (1998)
Min Temperature 63 °F 60 °F 53 °F (2006)
Degree Days  
Heating Degree Days 0 0  
Month to date heating degree days 11 0  
Since 1 June heating degree days 27 42  
Since 1 July heating degree days 11 5  
Cooling Degree Days 12 8  
Month to date cooling degree days 163 199  
Year to date cooling degree days 1033 699  
Since 1 June cooling degree days 946 658  
Growing Degree Days 27 (Base 50)    
Moisture  
Dew Point 52 °F    
Average Humidity 45    
Maximum Humidity 63    
Minimum Humidity 27    
Precipitation  
Precipitation 0.00 in 0.11 in 1.76 in (1902)
Month to date precipitation 0.78 2.33  
Year to date precipitation 10.91 18.08  
Sea Level Pressure  
Sea Level Pressure 29.87 in    
Wind  
Wind Speed 13 mph (South)    
Max Wind Speed 26 mph    
Max Gust Speed 36 mph    
Visibility 10 miles    
Events      
T = Trace of Precipitation, MM = Missing Value Source: NWS Daily Summary

Daily Weather History Graph

Daily Weather History Graph

Search for Another Location

Airport or City:

Trip Planner

Search our weather history database for the weather conditions in past years. The results will help you decide how hot, cold, wet, or windy it might be!

Date:

Astronomy

Aug. 22, 2012 Rise Set
Actual Time 6:52 AM CDT 8:24 PM CDT
Civil Twilight 6:22 AM CDT 8:53 PM CDT
Nautical Twilight 5:47 AM CDT 9:28 PM CDT
Astronomical Twilight 5:10 AM CDT 10:05 PM CDT
Moon 12:38 PM CDT (8/22) 11:00 PM CDT (8/22)
Length of Visible Light 14h 30m
Length of Day
13h 32m
Waxing Crescent, 29% of the Moon is Illuminated
Aug 22
Waxing Crescent
Aug 24
First Quarter
Aug 31
Full
Sep 8
Last Quarter
Sep 15
New

Hourly Weather History & Observations

Time (CDT) Temp. Heat Index Dew Point Humidity Pressure Visibility Wind Dir Wind Speed Gust Speed Precip Events Conditions
12:53 AM 69.1 °F - 48.9 °F 49% 29.91 in 10.0 mi SSW 9.2 mph - N/A   Clear
1:53 AM 68.0 °F - 48.0 °F 49% 29.91 in 10.0 mi SSW 8.1 mph - N/A   Clear
2:53 AM 64.9 °F - 48.0 °F 54% 29.91 in 10.0 mi SSW 8.1 mph - N/A   Clear
3:53 AM 68.0 °F - 48.0 °F 49% 29.90 in 10.0 mi SSW 11.5 mph - N/A   Clear
4:53 AM 68.0 °F - 48.9 °F 50% 29.89 in 10.0 mi SSW 10.4 mph - N/A   Clear
5:53 AM 64.9 °F - 50.0 °F 58% 29.90 in 10.0 mi SSW 5.8 mph - N/A   Clear
6:53 AM 64.0 °F - 51.1 °F 63% 29.91 in 10.0 mi South 6.9 mph - N/A   Clear
7:53 AM 66.0 °F - 52.0 °F 60% 29.91 in 10.0 mi South 5.8 mph - N/A   Clear
8:53 AM 70.0 °F - 55.0 °F 59% 29.91 in 10.0 mi SSW 8.1 mph - N/A   Clear
9:53 AM 78.1 °F - 57.0 °F 48% 29.90 in 10.0 mi South 11.5 mph - N/A   Clear
10:53 AM 82.9 °F 82.4 °F 57.0 °F 41% 29.90 in 10.0 mi SSW 16.1 mph - N/A   Clear
11:53 AM 84.9 °F 83.9 °F 57.0 °F 38% 29.89 in 10.0 mi South 15.0 mph - N/A   Clear
12:53 PM 87.8 °F 86.1 °F 55.4 °F 33% 29.92 in 10.0 mi South 23.0 mph 32.2 mph N/A   Clear
1:53 PM 88.0 °F 86.9 °F 57.9 °F 36% 29.87 in 10.0 mi South 20.7 mph 28.8 mph N/A   Clear
2:53 PM 90.0 °F 88.8 °F 57.9 °F 34% 29.85 in 10.0 mi South 20.7 mph 31.1 mph N/A   Clear
3:53 PM 90.0 °F 87.9 °F 55.0 °F 30% 29.83 in 10.0 mi South 20.7 mph 27.6 mph N/A   Clear
4:53 PM 88.0 °F 85.7 °F 53.1 °F 30% 29.83 in 10.0 mi South 17.3 mph - N/A   Clear
5:53 PM 89.1 °F - 52.0 °F 28% 29.82 in 10.0 mi South 19.6 mph 24.2 mph N/A   Clear
6:53 PM 88.0 °F - 50.0 °F 27% 29.81 in 10.0 mi South 15.0 mph 26.5 mph N/A   Clear
7:53 PM 84.0 °F - 50.0 °F 31% 29.81 in 10.0 mi South 13.8 mph - N/A   Clear
8:53 PM 80.1 °F - 51.1 °F 36% 29.82 in 10.0 mi South 10.4 mph - N/A   Clear
9:53 PM 77.0 °F - 51.1 °F 40% 29.84 in 10.0 mi South 9.2 mph - N/A   Clear
11:53 PM 75.9 °F - 53.1 °F 45% 29.85 in 10.0 mi South 10.4 mph - N/A   Clear